East Taunton, MA

7:25 AM EST on January 24, 2017 (GMT -0500)
Taunton Municipal

Weather History for KTAN - February, 2014

Change the Weather History Date:

Saturday, February 15, 2014

  Actual Average Record
Temperature  
Mean Temperature 31 °F -  
Max Temperature 37 °F 41 °F 60 °F (1949)
Min Temperature 25 °F 20 °F -7 °F (2016)
Degree Days  
Heating Degree Days 34    
Moisture  
Dew Point 27 °F    
Average Humidity 83    
Maximum Humidity 93    
Minimum Humidity 54    
Precipitation  
Precipitation 0.50 in - - ()
Sea Level Pressure  
Sea Level Pressure 29.64 in    
Wind  
Wind Speed 6 mph (North)    
Max Wind Speed 17 mph    
Max Gust Speed 26 mph    
Visibility 4 miles    
Events Fog , Snow    
Averages and records for this station are not official NWS values.
T = Trace of Precipitation, MM = Missing Value Source: NWS Daily Summary

Daily Weather History Graph

Daily Weather History Graph

Search for Another Location

Airport or City:

Trip Planner

Search our weather history database for the weather conditions in past years. The results will help you decide how hot, cold, wet, or windy it might be!

Date:

Astronomy

Feb. 15, 2014 Rise Set
Actual Time 6:39 AM EST 5:17 PM EST
Civil Twilight 6:11 AM EST 5:45 PM EST
Nautical Twilight 5:38 AM EST 6:18 PM EST
Astronomical Twilight 5:06 AM EST 6:50 PM EST
Moon 6:15 PM EST (2/15) 6:35 AM EST (2/15)
Length of Visible Light 11h 34m
Length of Day
10h 37m
Full, 100% of the Moon is Illuminated
Feb 15
Full
Feb 22
Last Quarter
Mar 1
New
Mar 8
First Quarter
Mar 16
Full

Hourly Weather History & Observations

Time (EST) Temp. Windchill Dew Point Humidity Pressure Visibility Wind Dir Wind Speed Gust Speed Precip Events Conditions
12:52 AM 32.0 °F 26.4 °F 21.9 °F 66% 29.77 in 10.0 mi SSW 5.8 mph - N/A   Clear
1:52 AM 30.9 °F 24.3 °F 21.9 °F 69% 29.79 in 10.0 mi SW 6.9 mph - N/A   Clear
2:52 AM 30.9 °F 27.5 °F 21.9 °F 69% 29.80 in 10.0 mi West 3.5 mph - N/A   Clear
3:52 AM 28.0 °F - 23.0 °F 81% 29.80 in 10.0 mi Calm Calm - N/A   Clear
4:52 AM 27.0 °F - 21.9 °F 81% 29.81 in 9.0 mi Calm Calm - N/A   Clear
5:52 AM 26.1 °F - 21.9 °F 84% 29.83 in 9.0 mi Calm Calm - N/A   Scattered Clouds
6:52 AM 25.0 °F - 21.9 °F 88% 29.82 in 6.0 mi Calm Calm - N/A   Partly Cloudy
7:52 AM 26.1 °F - 24.1 °F 92% 29.84 in 5.0 mi Calm Calm - N/A   Scattered Clouds
8:52 AM 32.0 °F - 25.0 °F 75% 29.84 in 8.0 mi Calm Calm - N/A   Clear
9:52 AM 35.1 °F 32.2 °F 23.0 °F 61% 29.84 in 10.0 mi ESE 3.5 mph - N/A   Overcast
10:52 AM 37.0 °F 34.5 °F 23.0 °F 57% 29.84 in 10.0 mi ENE 3.5 mph - N/A   Overcast
11:52 AM 37.0 °F - 21.9 °F 54% 29.77 in 10.0 mi Calm Calm - N/A   Overcast
12:52 PM 37.0 °F 32.4 °F 21.9 °F 54% 29.75 in 10.0 mi East 5.8 mph - N/A   Overcast
1:21 PM 34.0 °F 27.2 °F 27.0 °F 75% 29.74 in 2.0 mi East 8.1 mph - 0.00 in Snow Light Snow
1:26 PM 34.0 °F 28.8 °F 27.0 °F 75% 29.74 in 1.8 mi East 5.8 mph - 0.00 in Snow Light Snow
1:37 PM 33.1 °F 27.7 °F 28.0 °F 82% 29.73 in 1.0 mi ENE 5.8 mph - 0.00 in Snow Light Snow
1:45 PM 33.1 °F 28.7 °F 28.0 °F 82% 29.71 in 0.8 mi Variable 4.6 mph - 0.00 in Snow Light Snow
1:52 PM 33.1 °F 30.0 °F 28.9 °F 85% 29.71 in 0.8 mi Variable 3.5 mph - 0.01 in Snow Light Snow
2:23 PM 33.1 °F 26.9 °F 28.9 °F 85% 29.67 in 1.0 mi North 6.9 mph - 0.01 in Snow Light Snow
2:45 PM 32.0 °F 25.6 °F 28.9 °F 88% 29.67 in 1.0 mi North 6.9 mph - 0.02 in Snow Light Snow
2:52 PM 32.0 °F 25.6 °F 28.9 °F 88% 29.67 in 1.0 mi Variable 6.9 mph - 0.02 in Snow Light Snow
3:04 PM 32.0 °F 26.4 °F 28.9 °F 88% 29.66 in 0.8 mi Variable 5.8 mph - 0.00 in Snow Light Snow
3:18 PM 32.0 °F 26.4 °F 30.0 °F 92% 29.65 in 0.5 mi NNE 5.8 mph - 0.02 in Fog , Snow Snow
3:52 PM 32.0 °F 25.6 °F 30.0 °F 92% 29.62 in 0.5 mi NNE 6.9 mph - 0.05 in Fog , Snow Snow
4:13 PM 33.1 °F 26.9 °F 30.0 °F 89% 29.60 in 0.2 mi NNE 6.9 mph - 0.02 in Fog , Snow Snow
4:24 PM 33.1 °F 26.1 °F 30.0 °F 89% 29.60 in 0.2 mi NNE 8.1 mph - 0.04 in Fog , Snow Heavy Snow
4:52 PM 33.1 °F 26.9 °F 30.0 °F 89% 29.59 in 0.5 mi North 6.9 mph - 0.07 in Fog , Snow Snow
5:52 PM 33.1 °F 26.1 °F 30.9 °F 92% 29.56 in 0.8 mi North 8.1 mph 17.3 mph 0.08 in Snow Light Snow
6:48 PM 32.0 °F 23.0 °F 30.2 °F 93% 29.51 in 1.0 mi North 11.5 mph 21.9 mph 0.09 in Snow Light Snow
6:52 PM 32.0 °F 23.0 °F 30.0 °F 92% 29.51 in 1.0 mi North 11.5 mph 19.6 mph 0.09 in Snow Light Snow
7:22 PM 32.0 °F 22.1 °F 30.0 °F 92% 29.48 in 1.0 mi North 13.8 mph 20.7 mph 0.03 in Snow Light Snow
7:41 PM 32.0 °F 23.0 °F 30.0 °F 92% 29.46 in 0.8 mi North 11.5 mph 20.7 mph 0.05 in Snow Light Snow
7:52 PM 32.0 °F 23.6 °F 30.0 °F 92% 29.46 in 0.8 mi North 10.4 mph 21.9 mph 0.07 in Snow Light Snow
7:59 PM 32.0 °F 23.0 °F 30.0 °F 92% 29.45 in 1.0 mi North 11.5 mph 21.9 mph 0.00 in Snow Light Snow
8:52 PM 32.0 °F 22.1 °F 30.0 °F 92% 29.43 in 1.0 mi NNW 13.8 mph 23.0 mph 0.04 in Snow Light Snow
9:52 PM 32.0 °F 20.8 °F 28.9 °F 88% 29.41 in 1.0 mi NNW 17.3 mph 26.5 mph 0.04 in Snow Light Snow
10:30 PM 30.9 °F 20.2 °F 28.0 °F 89% 29.42 in 1.0 mi NNW 15.0 mph 23.0 mph 0.02 in Snow Light Snow
10:45 PM 30.9 °F 20.2 °F 28.0 °F 89% 29.42 in 1.2 mi NW 15.0 mph 26.5 mph 0.02 in Snow Light Snow
10:52 PM 30.9 °F 20.7 °F 28.0 °F 89% 29.42 in 1.2 mi NNW 13.8 mph 24.2 mph 0.02 in Snow Light Snow
10:59 PM 30.9 °F 20.2 °F 28.0 °F 89% 29.42 in 1.5 mi NNW 15.0 mph 23.0 mph 0.00 in Snow Light Snow
11:52 PM 30.9 °F 20.2 °F 27.0 °F 85% 29.42 in 1.5 mi NNW 15.0 mph 25.3 mph 0.01 in Snow Light Snow